Time,TemperatureF,DewpointF,PressureIn,WindDirection,WindDirectionDegrees,WindSpeedMPH,WindSpeedGustMPH,Humidity,HourlyPrecipIn,Conditions,Clouds,dailyrainin,SoftwareType,DateUTC
2013-04-17 00:00:00,40.1,35.0,30.41,West,273,0.0,3.0,82,0.00,,,0.00,Weather View 32 v70,2013-04-17 07:00:00,
2013-04-17 00:05:00,39.8,35.1,30.41,West,273,0.0,3.0,83,0.00,,,0.00,Weather View 32 v70,2013-04-17 07:05:00,
2013-04-17 00:10:00,39.3,34.6,30.41,West,273,0.0,2.0,83,0.00,,,0.00,Weather View 32 v70,2013-04-17 07:10:00,
2013-04-17 00:15:00,39.2,34.8,30.41,West,273,0.0,2.0,84,0.00,,,0.00,Weather View 32 v70,2013-04-17 07:15:00,
2013-04-17 00:20:00,38.8,34.4,30.41,West,273,0.0,2.0,84,0.00,,,0.00,Weather View 32 v70,2013-04-17 07:20:00,
2013-04-17 00:25:00,38.5,34.1,30.41,West,273,0.0,0.0,84,0.00,,,0.00,Weather View 32 v70,2013-04-17 07:25:00,
2013-04-17 00:30:00,38.2,33.8,30.42,West,273,0.0,0.0,84,0.00,,,0.00,Weather View 32 v70,2013-04-17 07:30:00,
2013-04-17 00:35:00,38.0,33.9,30.42,West,273,0.0,0.0,85,0.00,,,0.00,Weather View 32 v70,2013-04-17 07:35:00,
2013-04-17 00:40:00,37.9,33.8,30.42,West,273,0.0,0.0,85,0.00,,,0.00,Weather View 32 v70,2013-04-17 07:40:00,
2013-04-17 00:45:00,37.8,33.7,30.42,West,273,0.0,0.0,85,0.00,,,0.00,Weather View 32 v70,2013-04-17 07:45:00,
2013-04-17 00:50:00,37.6,33.8,30.42,West,273,0.0,0.0,86,0.00,,,0.00,Weather View 32 v70,2013-04-17 07:50:00,
2013-04-17 00:55:00,37.5,33.4,30.42,West,273,0.0,0.0,85,0.00,,,0.00,Weather View 32 v70,2013-04-17 07:55:00,
2013-04-17 01:00:00,37.2,33.4,30.43,West,273,0.0,0.0,86,0.00,,,0.00,Weather View 32 v70,2013-04-17 08:00:00,
2013-04-17 01:05:00,36.9,32.8,30.43,West,273,0.0,0.0,85,0.00,,,0.00,Weather View 32 v70,2013-04-17 08:05:00,
2013-04-17 01:10:00,36.6,32.8,30.43,West,273,0.0,0.0,86,0.00,,,0.00,Weather View 32 v70,2013-04-17 08:10:00,
2013-04-17 01:15:00,36.5,32.7,30.43,West,273,0.0,0.0,86,0.00,,,0.00,Weather View 32 v70,2013-04-17 08:15:00,
2013-04-17 01:20:00,36.2,32.4,30.43,West,273,0.0,0.0,86,0.00,,,0.00,Weather View 32 v70,2013-04-17 08:20:00,
2013-04-17 01:25:00,36.2,32.7,30.43,West,273,0.0,0.0,87,0.00,,,0.00,Weather View 32 v70,2013-04-17 08:25:00,
2013-04-17 01:30:00,36.3,32.8,30.43,West,273,0.0,0.0,87,0.00,,,0.00,Weather View 32 v70,2013-04-17 08:30:00,
2013-04-17 01:35:00,36.3,32.8,30.43,West,273,0.0,0.0,87,0.00,,,0.00,Weather View 32 v70,2013-04-17 08:35:00,
2013-04-17 01:40:00,36.2,32.4,30.43,West,273,0.0,0.0,86,0.00,,,0.00,Weather View 32 v70,2013-04-17 08:40:00,
2013-04-17 01:45:00,36.2,32.7,30.43,West,273,0.0,0.0,87,0.00,,,0.00,Weather View 32 v70,2013-04-17 08:45:00,
2013-04-17 01:50:00,36.0,32.2,30.43,West,273,0.0,0.0,86,0.00,,,0.00,Weather View 32 v70,2013-04-17 08:50:00,
2013-04-17 01:55:00,36.0,32.5,30.43,West,273,0.0,0.0,87,0.00,,,0.00,Weather View 32 v70,2013-04-17 08:55:00,
2013-04-17 02:00:00,35.9,32.1,30.43,West,273,0.0,0.0,86,0.00,,,0.00,Weather View 32 v70,2013-04-17 09:00:00,
2013-04-17 02:05:00,35.6,32.1,30.44,West,273,0.0,0.0,87,0.00,,,0.00,Weather View 32 v70,2013-04-17 09:05:00,
2013-04-17 02:10:00,35.5,31.7,30.44,West,273,0.0,0.0,86,0.00,,,0.00,Weather View 32 v70,2013-04-17 09:10:00,
2013-04-17 02:15:00,35.2,31.7,30.44,West,273,0.0,0.0,87,0.00,,,0.00,Weather View 32 v70,2013-04-17 09:15:00,
2013-04-17 02:20:00,34.9,31.4,30.44,West,273,0.0,0.0,87,0.00,,,0.00,Weather View 32 v70,2013-04-17 09:20:00,
2013-04-17 02:25:00,34.7,31.2,30.44,West,273,0.0,0.0,87,0.00,,,0.00,Weather View 32 v70,2013-04-17 09:25:00,
2013-04-17 02:30:00,34.4,30.9,30.44,West,273,0.0,0.0,87,0.00,,,0.00,Weather View 32 v70,2013-04-17 09:30:00,
2013-04-17 02:35:00,34.4,30.9,30.43,West,273,0.0,0.0,87,0.00,,,0.00,Weather View 32 v70,2013-04-17 09:35:00,
2013-04-17 02:40:00,34.4,31.2,30.43,West,273,0.0,0.0,88,0.00,,,0.00,Weather View 32 v70,2013-04-17 09:40:00,
2013-04-17 02:45:00,34.3,31.1,30.43,West,273,0.0,0.0,88,0.00,,,0.00,Weather View 32 v70,2013-04-17 09:45:00,
2013-04-17 02:50:00,34.1,30.9,30.43,West,273,0.0,0.0,88,0.00,,,0.00,Weather View 32 v70,2013-04-17 09:50:00,
2013-04-17 02:55:00,34.0,30.5,30.43,West,273,0.0,0.0,87,0.00,,,0.00,Weather View 32 v70,2013-04-17 09:55:00,
2013-04-17 03:00:00,33.8,30.6,30.43,West,273,0.0,0.0,88,0.00,,,0.00,Weather View 32 v70,2013-04-17 10:00:00,
2013-04-17 03:05:00,33.8,30.6,30.43,West,273,0.0,0.0,88,0.00,,,0.00,Weather View 32 v70,2013-04-17 10:05:00,
2013-04-17 03:10:00,33.8,30.6,30.43,West,273,0.0,0.0,88,0.00,,,0.00,Weather View 32 v70,2013-04-17 10:10:00,
2013-04-17 03:15:00,33.8,30.6,30.44,West,273,0.0,0.0,88,0.00,,,0.00,Weather View 32 v70,2013-04-17 10:15:00,
2013-04-17 03:20:00,33.8,30.6,30.44,West,273,0.0,0.0,88,0.00,,,0.00,Weather View 32 v70,2013-04-17 10:20:00,
2013-04-17 03:25:00,33.8,30.6,30.44,West,273,0.0,0.0,88,0.00,,,0.00,Weather View 32 v70,2013-04-17 10:25:00,
2013-04-17 03:30:00,33.8,30.6,30.44,West,273,0.0,0.0,88,0.00,,,0.00,Weather View 32 v70,2013-04-17 10:30:00,
2013-04-17 03:35:00,33.7,30.5,30.44,West,273,0.0,0.0,88,0.00,,,0.00,Weather View 32 v70,2013-04-17 10:35:00,
2013-04-17 03:40:00,33.7,30.5,30.44,West,273,0.0,0.0,88,0.00,,,0.00,Weather View 32 v70,2013-04-17 10:40:00,
2013-04-17 03:45:00,33.5,30.3,30.44,West,273,0.0,0.0,88,0.00,,,0.00,Weather View 32 v70,2013-04-17 10:45:00,
2013-04-17 03:50:00,33.4,30.2,30.44,West,273,0.0,0.0,88,0.00,,,0.00,Weather View 32 v70,2013-04-17 10:50:00,
2013-04-17 03:55:00,33.4,30.2,30.44,West,273,0.0,0.0,88,0.00,,,0.00,Weather View 32 v70,2013-04-17 10:55:00,
2013-04-17 04:00:00,33.2,30.0,30.44,West,273,0.0,0.0,88,0.00,,,0.00,Weather View 32 v70,2013-04-17 11:00:00,
2013-04-17 04:05:00,33.1,29.9,30.44,West,273,0.0,0.0,88,0.00,,,0.00,Weather View 32 v70,2013-04-17 11:05:00,
2013-04-17 04:10:00,32.9,29.7,30.45,West,273,0.0,0.0,88,0.00,,,0.00,Weather View 32 v70,2013-04-17 11:10:00,
2013-04-17 04:15:00,32.8,29.6,30.45,West,273,0.0,0.0,88,0.00,,,0.00,Weather View 32 v70,2013-04-17 11:15:00,
2013-04-17 04:20:00,32.7,29.5,30.45,West,273,0.0,0.0,88,0.00,,,0.00,Weather View 32 v70,2013-04-17 11:20:00,
2013-04-17 04:25:00,32.5,29.3,30.45,West,273,0.0,0.0,88,0.00,,,0.00,Weather View 32 v70,2013-04-17 11:25:00,
2013-04-17 04:30:00,32.5,29.3,30.45,West,273,0.0,0.0,88,0.00,,,0.00,Weather View 32 v70,2013-04-17 11:30:00,
2013-04-17 04:35:00,32.4,29.2,30.45,West,273,0.0,0.0,88,0.00,,,0.00,Weather View 32 v70,2013-04-17 11:35:00,
2013-04-17 04:40:00,32.2,29.0,30.45,West,273,0.0,0.0,88,0.00,,,0.00,Weather View 32 v70,2013-04-17 11:40:00,
2013-04-17 04:45:00,32.2,29.3,30.45,West,273,0.0,0.0,89,0.00,,,0.00,Weather View 32 v70,2013-04-17 11:45:00,
2013-04-17 04:50:00,32.2,29.3,30.45,West,273,0.0,0.0,89,0.00,,,0.00,Weather View 32 v70,2013-04-17 11:50:00,
2013-04-17 04:55:00,32.1,29.2,30.45,West,273,0.0,0.0,89,0.00,,,0.00,Weather View 32 v70,2013-04-17 11:55:00,
2013-04-17 05:00:00,31.8,28.9,30.45,West,273,0.0,0.0,89,0.00,,,0.00,Weather View 32 v70,2013-04-17 12:00:00,
2013-04-17 05:05:00,31.6,28.7,30.45,West,273,0.0,0.0,89,0.00,,,0.00,Weather View 32 v70,2013-04-17 12:05:00,
2013-04-17 05:10:00,31.5,28.6,30.45,West,273,0.0,0.0,89,0.00,,,0.00,Weather View 32 v70,2013-04-17 12:10:00,
2013-04-17 05:15:00,31.6,29.0,30.45,West,273,0.0,0.0,90,0.00,,,0.00,Weather View 32 v70,2013-04-17 12:15:00,
2013-04-17 05:20:00,31.6,29.0,30.45,West,273,0.0,0.0,90,0.00,,,0.00,Weather View 32 v70,2013-04-17 12:20:00,
2013-04-17 05:25:00,31.8,29.2,30.45,West,273,0.0,0.0,90,0.00,,,0.00,Weather View 32 v70,2013-04-17 12:25:00,
2013-04-17 05:30:00,31.8,29.2,30.45,West,273,0.0,0.0,90,0.00,,,0.00,Weather View 32 v70,2013-04-17 12:30:00,
2013-04-17 05:35:00,31.8,29.2,30.45,West,273,0.0,0.0,90,0.00,,,0.00,Weather View 32 v70,2013-04-17 12:35:00,
2013-04-17 05:40:00,31.6,29.0,30.45,West,273,0.0,0.0,90,0.00,,,0.00,Weather View 32 v70,2013-04-17 12:40:00,
2013-04-17 05:45:00,31.5,28.9,30.45,West,273,0.0,0.0,90,0.00,,,0.00,Weather View 32 v70,2013-04-17 12:45:00,
2013-04-17 05:50:00,31.3,28.7,30.45,West,273,0.0,0.0,90,0.00,,,0.00,Weather View 32 v70,2013-04-17 12:50:00,
2013-04-17 05:55:00,31.3,28.7,30.45,West,273,0.0,0.0,90,0.00,,,0.00,Weather View 32 v70,2013-04-17 12:55:00,
2013-04-17 06:00:00,31.5,28.9,30.45,West,273,0.0,0.0,90,0.00,,,0.00,Weather View 32 v70,2013-04-17 13:00:00,
2013-04-17 06:05:00,31.5,28.9,30.45,West,273,0.0,0.0,90,0.00,,,0.00,Weather View 32 v70,2013-04-17 13:05:00,
2013-04-17 06:10:00,31.3,28.7,30.45,West,273,0.0,0.0,90,0.00,,,0.00,Weather View 32 v70,2013-04-17 13:10:00,
2013-04-17 06:15:00,31.2,28.6,30.46,West,273,0.0,0.0,90,0.00,,,0.00,Weather View 32 v70,2013-04-17 13:15:00,
2013-04-17 06:20:00,31.2,28.6,30.46,West,273,0.0,0.0,90,0.00,,,0.00,Weather View 32 v70,2013-04-17 13:20:00,
2013-04-17 06:25:00,31.2,28.6,30.46,West,273,0.0,0.0,90,0.00,,,0.00,Weather View 32 v70,2013-04-17 13:25:00,
2013-04-17 06:30:00,31.2,28.6,30.46,West,273,0.0,0.0,90,0.00,,,0.00,Weather View 32 v70,2013-04-17 13:30:00,
2013-04-17 06:35:00,31.0,28.4,30.46,West,273,0.0,0.0,90,0.00,,,0.00,Weather View 32 v70,2013-04-17 13:35:00,
2013-04-17 06:45:00,31.0,28.4,30.46,West,273,0.0,0.0,90,0.00,,,0.00,Weather View 32 v70,2013-04-17 13:45:00,
2013-04-17 06:49:00,31.0,28.4,30.46,West,273,0.0,0.0,90,0.00,,,0.00,Weather View 32 v70,2013-04-17 13:49:00,
2013-04-17 06:54:00,31.2,28.6,30.46,West,273,0.0,0.0,90,0.00,,,0.00,Weather View 32 v70,2013-04-17 13:54:00,
2013-04-17 06:59:00,31.3,29.0,30.46,West,273,0.0,0.0,91,0.00,,,0.00,Weather View 32 v70,2013-04-17 13:59:00,
2013-04-17 07:04:00,31.5,29.2,30.47,West,273,0.0,0.0,91,0.00,,,0.00,Weather View 32 v70,2013-04-17 14:04:00,
2013-04-17 07:09:00,31.9,29.6,30.47,West,273,0.0,0.0,91,0.00,,,0.00,Weather View 32 v70,2013-04-17 14:09:00,
2013-04-17 07:14:00,32.2,29.9,30.47,West,273,0.0,0.0,91,0.00,,,0.00,Weather View 32 v70,2013-04-17 14:14:00,
2013-04-17 07:19:00,32.7,30.4,30.47,West,273,0.0,0.0,91,0.00,,,0.00,Weather View 32 v70,2013-04-17 14:19:00,
2013-04-17 07:24:00,33.1,30.8,30.47,West,273,0.0,0.0,91,0.00,,,0.00,Weather View 32 v70,2013-04-17 14:24:00,
2013-04-17 07:29:00,33.5,31.2,30.47,West,273,0.0,0.0,91,0.00,,,0.00,Weather View 32 v70,2013-04-17 14:29:00,
2013-04-17 07:34:00,34.3,31.9,30.47,West,273,0.0,0.0,91,0.00,,,0.00,Weather View 32 v70,2013-04-17 14:34:00,
2013-04-17 07:39:00,34.9,32.5,30.48,West,273,0.0,0.0,91,0.00,,,0.00,Weather View 32 v70,2013-04-17 14:39:00,
2013-04-17 07:44:00,35.8,33.4,30.48,West,273,0.0,0.0,91,0.00,,,0.00,Weather View 32 v70,2013-04-17 14:44:00,
2013-04-17 07:49:00,36.2,33.5,30.48,West,273,0.0,0.0,90,0.00,,,0.00,Weather View 32 v70,2013-04-17 14:49:00,
2013-04-17 07:54:00,36.5,33.6,30.48,West,273,0.0,0.0,89,0.00,,,0.00,Weather View 32 v70,2013-04-17 14:54:00,
2013-04-17 07:59:00,36.8,33.6,30.48,West,274,0.0,1.0,88,0.00,,,0.00,Weather View 32 v70,2013-04-17 14:59:00,
2013-04-17 08:04:00,37.0,33.5,30.49,West,274,0.0,1.0,87,0.00,,,0.00,Weather View 32 v70,2013-04-17 15:04:00,
2013-04-17 08:09:00,37.3,33.5,30.49,West,274,0.0,2.0,86,0.00,,,0.00,Weather View 32 v70,2013-04-17 15:09:00,
2013-04-17 08:14:00,37.6,33.8,30.49,West,274,0.0,2.0,86,0.00,,,0.00,Weather View 32 v70,2013-04-17 15:14:00,
2013-04-17 08:19:00,37.8,33.7,30.49,West,274,0.0,2.0,85,0.00,,,0.00,Weather View 32 v70,2013-04-17 15:19:00,
2013-04-17 08:24:00,37.9,33.5,30.49,West,274,1.0,4.0,84,0.00,,,0.00,Weather View 32 v70,2013-04-17 15:24:00,
2013-04-17 08:29:00,38.2,33.8,30.49,West,274,0.0,4.0,84,0.00,,,0.00,Weather View 32 v70,2013-04-17 15:29:00,
2013-04-17 08:34:00,38.3,33.9,30.49,West,275,2.0,4.0,84,0.00,,,0.00,Weather View 32 v70,2013-04-17 15:34:00,
2013-04-17 08:39:00,38.3,33.6,30.49,West,275,0.0,4.0,83,0.00,,,0.00,Weather View 32 v70,2013-04-17 15:39:00,
2013-04-17 08:44:00,38.3,33.9,30.49,West,275,0.0,4.0,84,0.00,,,0.00,Weather View 32 v70,2013-04-17 15:44:00,
2013-04-17 08:49:00,38.3,33.6,30.49,West,275,0.0,4.0,83,0.00,,,0.00,Weather View 32 v70,2013-04-17 15:49:00,
2013-04-17 08:54:00,38.3,33.9,30.49,West,275,0.0,4.0,84,0.00,,,0.00,Weather View 32 v70,2013-04-17 15:54:00,
2013-04-17 08:59:00,38.5,34.1,30.49,West,275,0.0,4.0,84,0.00,,,0.00,Weather View 32 v70,2013-04-17 15:59:00,
2013-04-17 09:04:00,38.8,34.4,30.49,West,275,0.0,4.0,84,0.00,,,0.00,Weather View 32 v70,2013-04-17 16:04:00,
2013-04-17 09:09:00,38.9,34.2,30.49,West,275,0.0,4.0,83,0.00,,,0.00,Weather View 32 v70,2013-04-17 16:09:00,
2013-04-17 09:14:00,39.1,34.4,30.48,West,275,0.0,4.0,83,0.00,,,0.00,Weather View 32 v70,2013-04-17 16:14:00,
2013-04-17 09:19:00,39.3,34.9,30.48,West,275,0.0,4.0,84,0.00,,,0.00,Weather View 32 v70,2013-04-17 16:19:00,
2013-04-17 09:31:00,39.9,35.2,30.48,West,275,0.0,4.0,83,0.00,,,0.00,Weather View 32 v70,2013-04-17 16:31:00,
2013-04-17 09:36:00,40.3,35.5,30.48,West,277,2.0,4.0,83,0.00,,,0.00,Weather View 32 v70,2013-04-17 16:36:00,
2013-04-17 09:41:00,40.6,35.2,30.48,West,277,0.0,4.0,81,0.00,,,0.00,Weather View 32 v70,2013-04-17 16:41:00,
2013-04-17 09:46:00,40.8,35.1,30.48,West,277,0.0,4.0,80,0.00,,,0.00,Weather View 32 v70,2013-04-17 16:46:00,
2013-04-17 09:51:00,41.2,35.5,30.48,West,277,0.0,4.0,80,0.00,,,0.00,Weather View 32 v70,2013-04-17 16:51:00,
2013-04-17 09:56:00,41.9,36.2,30.48,West,277,0.0,4.0,80,0.00,,,0.00,Weather View 32 v70,2013-04-17 16:56:00,
2013-04-17 10:02:00,42.5,35.5,30.48,West,279,0.0,4.0,76,0.00,,,0.00,Weather View 32 v70,2013-04-17 17:02:00,
2013-04-17 10:06:00,42.8,35.8,30.47,West,278,0.0,4.0,76,0.00,,,0.00,Weather View 32 v70,2013-04-17 17:06:00,
2013-04-17 10:12:00,43.1,35.7,30.47,West,279,3.0,4.0,75,0.00,,,0.00,Weather View 32 v70,2013-04-17 17:12:00,
2013-04-17 10:17:00,43.1,35.0,30.47,West,279,0.0,4.0,73,0.00,,,0.00,Weather View 32 v70,2013-04-17 17:17:00,
2013-04-17 10:22:00,43.1,35.0,30.47,West,279,0.0,4.0,73,0.00,,,0.00,Weather View 32 v70,2013-04-17 17:22:00,
2013-04-17 10:27:00,43.3,35.2,30.47,West,279,0.0,4.0,73,0.00,,,0.00,Weather View 32 v70,2013-04-17 17:27:00,
2013-04-17 10:32:00,43.8,35.7,30.47,WNW,298,4.0,7.0,73,0.00,,,0.00,Weather View 32 v70,2013-04-17 17:32:00,
2013-04-17 10:37:00,44.1,35.6,30.47,WNW,299,1.0,7.0,72,0.00,,,0.00,Weather View 32 v70,2013-04-17 17:37:00,
2013-04-17 10:42:00,44.3,35.8,30.47,WNW,298,0.0,7.0,72,0.00,,,0.00,Weather View 32 v70,2013-04-17 17:42:00,
2013-04-17 10:47:00,44.9,35.7,30.47,WNW,298,0.0,7.0,70,0.00,,,0.00,Weather View 32 v70,2013-04-17 17:47:00,
2013-04-17 10:52:00,45.7,36.5,30.47,WNW,298,0.0,7.0,70,0.00,,,0.00,Weather View 32 v70,2013-04-17 17:52:00,
2013-04-17 10:57:00,46.5,36.5,30.47,WNW,300,1.0,7.0,68,0.00,,,0.00,Weather View 32 v70,2013-04-17 17:57:00,
2013-04-17 11:02:00,47.6,36.8,30.47,WNW,300,0.0,7.0,66,0.00,,,0.00,Weather View 32 v70,2013-04-17 18:02:00,
2013-04-17 11:07:00,48.0,36.4,30.47,WNW,300,0.0,7.0,64,0.00,,,0.00,Weather View 32 v70,2013-04-17 18:07:00,
2013-04-17 11:12:00,48.5,36.9,30.47,WNW,300,0.0,7.0,64,0.00,,,0.00,Weather View 32 v70,2013-04-17 18:12:00,
2013-04-17 11:17:00,49.4,37.3,30.47,WNW,300,0.0,7.0,63,0.00,,,0.00,Weather View 32 v70,2013-04-17 18:17:00,
2013-04-17 11:22:00,50.2,37.7,30.47,WNW,300,1.0,7.0,62,0.00,,,0.00,Weather View 32 v70,2013-04-17 18:22:00,
2013-04-17 11:27:00,50.8,37.0,30.46,WNW,301,4.0,7.0,59,0.00,,,0.00,Weather View 32 v70,2013-04-17 18:27:00,
2013-04-17 11:32:00,51.4,37.1,30.46,WNW,291,3.0,6.0,58,0.00,,,0.00,Weather View 32 v70,2013-04-17 18:32:00,
2013-04-17 11:37:00,52.2,36.9,30.46,NW,310,2.0,6.0,56,0.00,,,0.00,Weather View 32 v70,2013-04-17 18:37:00,
2013-04-17 11:42:00,53.1,36.9,30.46,NW,317,4.0,6.0,54,0.00,,,0.00,Weather View 32 v70,2013-04-17 18:42:00,
2013-04-17 11:47:00,53.1,36.9,30.46,NW,310,2.0,6.0,54,0.00,,,0.00,Weather View 32 v70,2013-04-17 18:47:00,
2013-04-17 11:52:00,53.1,37.8,30.45,WNW,299,4.0,9.0,56,0.00,,,0.00,Weather View 32 v70,2013-04-17 18:52:00,
2013-04-17 11:57:00,53.8,37.5,30.45,West,275,6.0,9.0,54,0.00,,,0.00,Weather View 32 v70,2013-04-17 18:57:00,
2013-04-17 12:02:00,54.1,35.8,30.45,WNW,300,3.0,9.0,50,0.00,,,0.00,Weather View 32 v70,2013-04-17 19:02:00,
2013-04-17 12:07:00,54.4,37.1,30.45,WNW,296,1.0,9.0,52,0.00,,,0.00,Weather View 32 v70,2013-04-17 19:07:00,
2013-04-17 12:12:00,54.7,36.9,30.45,WNW,292,9.0,12.0,51,0.00,,,0.00,Weather View 32 v70,2013-04-17 19:12:00,
2013-04-17 12:17:00,55.0,36.2,30.44,WSW,241,5.0,12.0,49,0.00,,,0.00,Weather View 32 v70,2013-04-17 19:17:00,
2013-04-17 12:22:00,55.3,35.9,30.44,WNW,297,5.0,12.0,48,0.00,,,0.00,Weather View 32 v70,2013-04-17 19:22:00,
2013-04-17 12:27:00,55.3,35.9,30.44,WNW,299,5.0,13.0,48,0.00,,,0.00,Weather View 32 v70,2013-04-17 19:27:00,
2013-04-17 12:32:00,55.0,35.6,30.44,NW,309,4.0,18.0,48,0.00,,,0.00,Weather View 32 v70,2013-04-17 19:32:00,
2013-04-17 12:37:00,55.3,36.4,30.44,West,275,5.0,18.0,49,0.00,,,0.00,Weather View 32 v70,2013-04-17 19:37:00,
2013-04-17 12:42:00,55.9,37.0,30.44,West,281,5.0,18.0,49,0.00,,,0.00,Weather View 32 v70,2013-04-17 19:42:00,
2013-04-17 12:47:00,56.2,36.7,30.43,WNW,299,10.0,18.0,48,0.00,,,0.00,Weather View 32 v70,2013-04-17 19:47:00,
2013-04-17 12:52:00,56.3,36.3,30.43,WNW,296,7.0,18.0,47,0.00,,,0.00,Weather View 32 v70,2013-04-17 19:52:00,
2013-04-17 12:57:00,56.5,36.5,30.42,NW,311,7.0,18.0,47,0.00,,,0.00,Weather View 32 v70,2013-04-17 19:57:00,
2013-04-17 13:02:00,56.6,36.0,30.42,West,274,7.0,18.0,46,0.00,,,0.00,Weather View 32 v70,2013-04-17 20:02:00,
2013-04-17 13:07:00,57.0,34.7,30.42,NW,309,6.0,18.0,43,0.00,,,0.00,Weather View 32 v70,2013-04-17 20:07:00,
2013-04-17 13:12:00,57.3,34.9,30.43,West,263,7.0,18.0,43,0.00,,,0.00,Weather View 32 v70,2013-04-17 20:12:00,
2013-04-17 13:17:00,57.0,33.5,30.43,WSW,248,10.0,18.0,41,0.00,,,0.00,Weather View 32 v70,2013-04-17 20:17:00,
2013-04-17 13:22:00,57.3,34.4,30.42,NW,321,7.0,18.0,42,0.00,,,0.00,Weather View 32 v70,2013-04-17 20:22:00,
2013-04-17 13:27:00,57.5,33.3,30.42,NW,315,9.0,18.0,40,0.00,,,0.00,Weather View 32 v70,2013-04-17 20:27:00,
2013-04-17 13:32:00,58.1,33.2,30.42,WNW,288,4.0,18.0,39,0.00,,,0.00,Weather View 32 v70,2013-04-17 20:32:00,
2013-04-17 13:37:00,58.4,31.5,30.42,West,274,4.0,18.0,36,0.00,,,0.00,Weather View 32 v70,2013-04-17 20:37:00,
2013-04-17 13:42:00,58.6,31.0,30.41,NW,318,3.0,18.0,35,0.00,,,0.00,Weather View 32 v70,2013-04-17 20:42:00,
2013-04-17 13:47:00,58.9,31.9,30.41,WNW,284,3.0,18.0,36,0.00,,,0.00,Weather View 32 v70,2013-04-17 20:47:00,
2013-04-17 13:52:00,58.6,31.0,30.41,WNW,294,5.0,18.0,35,0.00,,,0.00,Weather View 32 v70,2013-04-17 20:52:00,
2013-04-17 13:57:00,58.7,31.1,30.41,WNW,303,5.0,18.0,35,0.00,,,0.00,Weather View 32 v70,2013-04-17 20:57:00,
2013-04-17 14:02:00,58.7,28.9,30.41,West,265,4.0,18.0,32,0.00,,,0.00,Weather View 32 v70,2013-04-17 21:02:00,
2013-04-17 14:07:00,59.2,29.3,30.41,SW,222,9.0,18.0,32,0.00,,,0.00,Weather View 32 v70,2013-04-17 21:07:00,
2013-04-17 14:12:00,59.2,32.2,30.41,WNW,303,7.0,18.0,36,0.00,,,0.00,Weather View 32 v70,2013-04-17 21:12:00,
2013-04-17 14:17:00,59.5,31.8,30.40,WSW,254,8.0,17.0,35,0.00,,,0.00,Weather View 32 v70,2013-04-17 21:17:00,
2013-04-17 14:22:00,59.6,31.9,30.41,WNW,292,3.0,17.0,35,0.00,,,0.00,Weather View 32 v70,2013-04-17 21:22:00,
2013-04-17 14:27:00,60.1,31.6,30.40,WNW,286,6.0,17.0,34,0.00,,,0.00,Weather View 32 v70,2013-04-17 21:27:00,
2013-04-17 14:32:00,60.2,31.7,30.40,WNW,290,9.0,17.0,34,0.00,,,0.00,Weather View 32 v70,2013-04-17 21:32:00,
2013-04-17 14:37:00,60.1,30.8,30.40,WNW,287,12.0,17.0,33,0.00,,,0.00,Weather View 32 v70,2013-04-17 21:37:00,
2013-04-17 14:42:00,59.5,31.0,30.40,WNW,288,11.0,17.0,34,0.00,,,0.00,Weather View 32 v70,2013-04-17 21:42:00,
2013-04-17 14:47:00,58.7,31.1,30.40,West,263,1.0,17.0,35,0.00,,,0.00,Weather View 32 v70,2013-04-17 21:47:00,
2013-04-17 14:52:00,58.7,30.3,30.40,WNW,302,7.0,17.0,34,0.00,,,0.00,Weather View 32 v70,2013-04-17 21:52:00,
2013-04-17 14:57:00,58.4,31.5,30.40,NW,317,10.0,17.0,36,0.00,,,0.00,Weather View 32 v70,2013-04-17 21:57:00,
2013-04-17 15:02:00,58.1,31.9,30.40,WNW,301,11.0,17.0,37,0.00,,,0.00,Weather View 32 v70,2013-04-17 22:02:00,
2013-04-17 15:07:00,58.0,31.8,30.40,WNW,284,4.0,17.0,37,0.00,,,0.00,Weather View 32 v70,2013-04-17 22:07:00,
2013-04-17 15:12:00,58.0,33.1,30.40,WNW,293,5.0,17.0,39,0.00,,,0.00,Weather View 32 v70,2013-04-17 22:12:00,
2013-04-17 15:17:00,57.8,33.0,30.40,WNW,294,0.0,17.0,39,0.00,,,0.00,Weather View 32 v70,2013-04-17 22:17:00,
2013-04-17 15:22:00,57.6,32.1,30.39,WNW,298,6.0,17.0,38,0.00,,,0.00,Weather View 32 v70,2013-04-17 22:22:00,
2013-04-17 15:27:00,57.8,33.0,30.39,West,272,4.0,17.0,39,0.00,,,0.00,Weather View 32 v70,2013-04-17 22:27:00,
2013-04-17 15:32:00,59.2,32.9,30.39,SW,222,10.0,17.0,37,0.00,,,0.00,Weather View 32 v70,2013-04-17 22:32:00,
2013-04-17 15:37:00,59.9,32.1,30.39,WSW,257,4.0,17.0,35,0.00,,,0.00,Weather View 32 v70,2013-04-17 22:37:00,
2013-04-17 15:42:00,60.2,32.4,30.39,WNW,292,6.0,17.0,35,0.00,,,0.00,Weather View 32 v70,2013-04-17 22:42:00,
2013-04-17 15:47:00,60.1,32.3,30.39,WNW,292,8.0,19.0,35,0.00,,,0.00,Weather View 32 v70,2013-04-17 22:47:00,
2013-04-17 15:52:00,59.6,31.9,30.38,WNW,285,5.0,19.0,35,0.00,,,0.00,Weather View 32 v70,2013-04-17 22:52:00,
2013-04-17 15:57:00,59.2,32.2,30.39,WSW,242,15.0,19.0,36,0.00,,,0.00,Weather View 32 v70,2013-04-17 22:57:00,
2013-04-17 16:02:00,58.7,32.4,30.39,West,281,9.0,19.0,37,0.00,,,0.00,Weather View 32 v70,2013-04-17 23:02:00,
2013-04-17 16:07:00,58.4,33.5,30.39,West,269,7.0,19.0,39,0.00,,,0.00,Weather View 32 v70,2013-04-17 23:07:00,
2013-04-17 16:12:00,58.3,33.4,30.39,West,271,4.0,19.0,39,0.00,,,0.00,Weather View 32 v70,2013-04-17 23:12:00,
2013-04-17 16:17:00,58.0,33.8,30.38,WNW,289,7.0,19.0,40,0.00,,,0.00,Weather View 32 v70,2013-04-17 23:17:00,
2013-04-17 16:22:00,57.6,33.4,30.38,West,267,9.0,19.0,40,0.00,,,0.00,Weather View 32 v70,2013-04-17 23:22:00,
2013-04-17 16:27:00,57.6,33.4,30.38,WNW,292,3.0,19.0,40,0.00,,,0.00,Weather View 32 v70,2013-04-17 23:27:00,
2013-04-17 16:32:00,57.6,34.0,30.38,West,267,6.0,19.0,41,0.00,,,0.00,Weather View 32 v70,2013-04-17 23:32:00,
2013-04-17 16:37:00,57.6,34.0,30.38,WSW,242,9.0,19.0,41,0.00,,,0.00,Weather View 32 v70,2013-04-17 23:37:00,
2013-04-17 16:42:00,57.8,34.2,30.38,West,278,4.0,19.0,41,0.00,,,0.00,Weather View 32 v70,2013-04-17 23:42:00,
2013-04-17 16:47:00,58.4,33.5,30.38,NNW,330,9.0,19.0,39,0.00,,,0.00,Weather View 32 v70,2013-04-17 23:47:00,
2013-04-17 16:52:00,58.1,32.6,30.38,WNW,295,2.0,17.0,38,0.00,,,0.00,Weather View 32 v70,2013-04-17 23:52:00,
2013-04-17 16:57:00,57.5,33.3,30.38,WSW,248,4.0,17.0,40,0.00,,,0.00,Weather View 32 v70,2013-04-17 23:57:00,
2013-04-17 17:02:00,57.2,33.7,30.38,WNW,289,3.0,17.0,41,0.00,,,0.00,Weather View 32 v70,2013-04-18 00:02:00,
2013-04-17 17:07:00,56.9,33.4,30.38,WNW,298,7.0,17.0,41,0.00,,,0.00,Weather View 32 v70,2013-04-18 00:07:00,
2013-04-17 17:12:00,56.6,33.1,30.38,WNW,293,4.0,17.0,41,0.00,,,0.00,Weather View 32 v70,2013-04-18 00:12:00,
2013-04-17 17:17:00,56.6,33.7,30.38,NW,308,6.0,17.0,42,0.00,,,0.00,Weather View 32 v70,2013-04-18 00:17:00,
2013-04-17 17:22:00,56.6,33.1,30.38,West,265,11.0,17.0,41,0.00,,,0.00,Weather View 32 v70,2013-04-18 00:22:00,
2013-04-17 17:27:00,56.6,33.1,30.38,West,280,4.0,17.0,41,0.00,,,0.00,Weather View 32 v70,2013-04-18 00:27:00,
2013-04-17 17:32:00,56.7,32.6,30.37,West,271,4.0,17.0,40,0.00,,,0.00,Weather View 32 v70,2013-04-18 00:32:00,
2013-04-17 17:37:00,56.9,33.4,30.38,NW,309,4.0,14.0,41,0.00,,,0.00,Weather View 32 v70,2013-04-18 00:37:00,
2013-04-17 17:45:00,56.7,32.6,30.38,WSW,250,8.0,15.0,40,0.00,,,0.00,Weather View 32 v70,2013-04-18 00:45:00,
2013-04-17 17:50:00,56.6,32.5,30.37,West,261,8.0,15.0,40,0.00,,,0.00,Weather View 32 v70,2013-04-18 00:50:00,
2013-04-17 17:55:00,56.5,32.4,30.38,WNW,283,5.0,15.0,40,0.00,,,0.00,Weather View 32 v70,2013-04-18 00:55:00,
2013-04-17 18:00:00,56.3,32.2,30.38,WNW,288,10.0,16.0,40,0.00,,,0.00,Weather View 32 v70,2013-04-18 01:00:00,
2013-04-17 18:05:00,56.2,32.1,30.38,West,264,16.0,16.0,40,0.00,,,0.00,Weather View 32 v70,2013-04-18 01:05:00,
2013-04-17 18:14:00,56.2,32.1,30.38,West,264,16.0,16.0,40,0.00,,,0.00,Weather View 32 v70,2013-04-18 01:14:00,
2013-04-17 18:19:00,56.0,31.3,30.38,WSW,254,7.0,18.0,39,0.00,,,0.00,Weather View 32 v70,2013-04-18 01:19:00,
2013-04-17 18:24:00,56.2,31.5,30.38,NW,316,7.0,18.0,39,0.00,,,0.00,Weather View 32 v70,2013-04-18 01:24:00,
2013-04-17 18:29:00,56.3,31.6,30.38,WSW,251,6.0,18.0,39,0.00,,,0.00,Weather View 32 v70,2013-04-18 01:29:00,
2013-04-17 18:34:00,56.0,32.0,30.38,West,281,2.0,18.0,40,0.00,,,0.00,Weather View 32 v70,2013-04-18 01:34:00,
2013-04-17 18:39:00,55.3,33.1,30.38,West,266,6.0,18.0,43,0.00,,,0.00,Weather View 32 v70,2013-04-18 01:39:00,
2013-04-17 18:45:00,54.8,33.8,30.38,WNW,282,3.0,18.0,45,0.00,,,0.00,Weather View 32 v70,2013-04-18 01:45:00,
2013-04-17 18:51:00,54.5,34.1,30.38,West,281,1.0,18.0,46,0.00,,,0.00,Weather View 32 v70,2013-04-18 01:51:00,
2013-04-17 18:56:00,54.4,34.5,30.38,West,276,5.0,18.0,47,0.00,,,0.00,Weather View 32 v70,2013-04-18 01:56:00,
2013-04-17 19:02:00,54.4,34.0,30.38,WNW,297,6.0,18.0,46,0.00,,,0.00,Weather View 32 v70,2013-04-18 02:02:00,
2013-04-17 19:07:00,54.5,33.6,30.38,West,266,7.0,18.0,45,0.00,,,0.00,Weather View 32 v70,2013-04-18 02:07:00,
2013-04-17 19:12:00,54.4,34.0,30.38,WNW,296,2.0,18.0,46,0.00,,,0.00,Weather View 32 v70,2013-04-18 02:12:00,
2013-04-17 19:17:00,54.2,33.8,30.38,West,269,4.0,18.0,46,0.00,,,0.00,Weather View 32 v70,2013-04-18 02:17:00,
2013-04-17 19:22:00,53.9,34.6,30.38,WNW,293,3.0,13.0,48,0.00,,,0.00,Weather View 32 v70,2013-04-18 02:22:00,
2013-04-17 19:27:00,53.9,34.1,30.38,West,276,1.0,13.0,47,0.00,,,0.00,Weather View 32 v70,2013-04-18 02:27:00,
2013-04-17 19:32:00,53.9,34.6,30.38,NW,307,5.0,13.0,48,0.00,,,0.00,Weather View 32 v70,2013-04-18 02:32:00,
2013-04-17 19:37:00,53.9,34.6,30.38,West,265,5.0,13.0,48,0.00,,,0.00,Weather View 32 v70,2013-04-18 02:37:00,
2013-04-17 19:42:00,53.9,34.6,30.38,WNW,286,3.0,13.0,48,0.00,,,0.00,Weather View 32 v70,2013-04-18 02:42:00,
2013-04-17 19:47:00,53.8,35.0,30.38,North,0,11.0,13.0,49,0.00,,,0.00,Weather View 32 v70,2013-04-18 02:47:00,
2013-04-17 19:52:00,53.8,35.6,30.38,WNW,285,4.0,13.0,50,0.00,,,0.00,Weather View 32 v70,2013-04-18 02:52:00,
2013-04-17 19:57:00,53.6,35.4,30.38,West,279,6.0,14.0,50,0.00,,,0.00,Weather View 32 v70,2013-04-18 02:57:00,
2013-04-17 20:02:00,53.3,35.6,30.38,WNW,300,7.0,14.0,51,0.00,,,0.00,Weather View 32 v70,2013-04-18 03:02:00,
2013-04-17 20:07:00,53.3,35.6,30.38,WNW,289,5.0,14.0,51,0.00,,,0.00,Weather View 32 v70,2013-04-18 03:07:00,
2013-04-17 20:12:00,53.2,35.5,30.38,WNW,292,4.0,15.0,51,0.00,,,0.00,Weather View 32 v70,2013-04-18 03:12:00,
2013-04-17 20:20:00,53.1,35.9,30.38,WNW,289,3.0,16.0,52,0.00,,,0.00,Weather View 32 v70,2013-04-18 03:20:00,
2013-04-17 20:25:00,53.1,35.9,30.38,WNW,283,4.0,16.0,52,0.00,,,0.00,Weather View 32 v70,2013-04-18 03:25:00,
2013-04-17 20:30:00,53.1,35.9,30.38,WSW,258,3.0,16.0,52,0.00,,,0.00,Weather View 32 v70,2013-04-18 03:30:00,
2013-04-17 20:35:00,53.1,35.9,30.38,West,277,4.0,16.0,52,0.00,,,0.00,Weather View 32 v70,2013-04-18 03:35:00,
2013-04-17 20:40:00,53.1,35.9,30.39,WNW,295,1.0,16.0,52,0.00,,,0.00,Weather View 32 v70,2013-04-18 03:40:00,
2013-04-17 20:45:00,53.1,35.9,30.39,West,261,6.0,16.0,52,0.00,,,0.00,Weather View 32 v70,2013-04-18 03:45:00,
2013-04-17 20:50:00,53.1,35.9,30.39,WNW,289,6.0,16.0,52,0.00,,,0.00,Weather View 32 v70,2013-04-18 03:50:00,
2013-04-17 20:55:00,52.9,35.7,30.39,West,263,3.0,16.0,52,0.00,,,0.00,Weather View 32 v70,2013-04-18 03:55:00,
2013-04-17 21:00:00,53.1,35.9,30.39,West,275,10.0,16.0,52,0.00,,,0.00,Weather View 32 v70,2013-04-18 04:00:00,
2013-04-17 21:01:00,53.1,35.9,30.39,West,276,9.0,16.0,52,0.00,,,0.00,Weather View 32 v70,2013-04-18 04:01:00,
2013-04-17 21:06:00,52.9,36.2,30.39,West,271,5.0,16.0,53,0.00,,,0.00,Weather View 32 v70,2013-04-18 04:06:00,
2013-04-17 21:11:00,52.8,36.1,30.39,WNW,292,7.0,16.0,53,0.00,,,0.00,Weather View 32 v70,2013-04-18 04:11:00,
2013-04-17 21:16:00,52.6,36.4,30.40,WNW,282,6.0,16.0,54,0.00,,,0.00,Weather View 32 v70,2013-04-18 04:16:00,
2013-04-17 21:21:00,52.6,36.4,30.40,NW,313,6.0,13.0,54,0.00,,,0.00,Weather View 32 v70,2013-04-18 04:21:00,
2013-04-17 21:26:00,52.6,36.4,30.40,WNW,284,5.0,13.0,54,0.00,,,0.00,Weather View 32 v70,2013-04-18 04:26:00,
2013-04-17 21:31:00,52.6,36.4,30.40,WNW,287,6.0,13.0,54,0.00,,,0.00,Weather View 32 v70,2013-04-18 04:31:00,
2013-04-17 21:37:00,52.5,36.8,30.40,West,275,6.0,14.0,55,0.00,,,0.00,Weather View 32 v70,2013-04-18 04:37:00,
2013-04-17 21:42:00,52.5,36.8,30.40,WNW,290,5.0,14.0,55,0.00,,,0.00,Weather View 32 v70,2013-04-18 04:42:00,
2013-04-17 21:46:00,52.3,37.0,30.40,WNW,295,7.0,14.0,56,0.00,,,0.00,Weather View 32 v70,2013-04-18 04:46:00,
2013-04-17 21:51:00,52.2,36.9,30.40,NW,305,6.0,14.0,56,0.00,,,0.00,Weather View 32 v70,2013-04-18 04:51:00,
2013-04-17 21:56:00,52.2,37.4,30.40,WNW,285,4.0,14.0,57,0.00,,,0.00,Weather View 32 v70,2013-04-18 04:56:00,
2013-04-17 22:01:00,51.9,37.1,30.40,NW,319,5.0,14.0,57,0.00,,,0.00,Weather View 32 v70,2013-04-18 05:01:00,
2013-04-17 22:07:00,51.9,37.6,30.40,WNW,283,6.0,14.0,58,0.00,,,0.00,Weather View 32 v70,2013-04-18 05:07:00,
2013-04-17 22:12:00,51.9,37.6,30.39,NW,304,3.0,14.0,58,0.00,,,0.00,Weather View 32 v70,2013-04-18 05:12:00,
2013-04-17 22:17:00,51.9,37.6,30.39,West,263,3.0,14.0,58,0.00,,,0.00,Weather View 32 v70,2013-04-18 05:17:00,
2013-04-17 22:22:00,51.7,37.8,30.39,WNW,292,4.0,14.0,59,0.00,,,0.00,Weather View 32 v70,2013-04-18 05:22:00,
2013-04-17 22:27:00,51.7,37.8,30.39,West,272,3.0,14.0,59,0.00,,,0.00,Weather View 32 v70,2013-04-18 05:27:00,
2013-04-17 22:32:00,51.6,37.7,30.39,WNW,284,3.0,14.0,59,0.00,,,0.00,Weather View 32 v70,2013-04-18 05:32:00,
2013-04-17 22:37:00,51.4,38.0,30.39,West,277,0.0,13.0,60,0.00,,,0.00,Weather View 32 v70,2013-04-18 05:37:00,
2013-04-17 22:41:00,51.4,38.0,30.39,WNW,282,3.0,13.0,60,0.00,,,0.00,Weather View 32 v70,2013-04-18 05:41:00,
2013-04-17 22:46:00,51.3,37.9,30.39,WNW,292,2.0,13.0,60,0.00,,,0.00,Weather View 32 v70,2013-04-18 05:46:00,
2013-04-17 22:51:00,51.1,37.7,30.39,WNW,294,3.0,13.0,60,0.00,,,0.00,Weather View 32 v70,2013-04-18 05:51:00,
2013-04-17 22:56:00,51.0,38.0,30.39,WNW,298,1.0,13.0,61,0.00,,,0.00,Weather View 32 v70,2013-04-18 05:56:00,
2013-04-17 23:02:00,50.8,37.8,30.39,WNW,289,1.0,13.0,61,0.00,,,0.00,Weather View 32 v70,2013-04-18 06:02:00,
2013-04-17 23:07:00,50.7,38.1,30.39,West,276,11.0,13.0,62,0.00,,,0.00,Weather View 32 v70,2013-04-18 06:07:00,
2013-04-17 23:12:00,50.7,38.1,30.39,West,269,3.0,11.0,62,0.00,,,0.00,Weather View 32 v70,2013-04-18 06:12:00,
2013-04-17 23:17:00,50.7,38.1,30.39,WNW,287,9.0,11.0,62,0.00,,,0.00,Weather View 32 v70,2013-04-18 06:17:00,
2013-04-17 23:22:00,50.8,37.8,30.39,West,269,7.0,11.0,61,0.00,,,0.00,Weather View 32 v70,2013-04-18 06:22:00,
2013-04-17 23:27:00,50.7,38.1,30.39,West,262,5.0,14.0,62,0.00,,,0.00,Weather View 32 v70,2013-04-18 06:27:00,
2013-04-17 23:32:00,50.7,38.1,30.39,West,278,6.0,14.0,62,0.00,,,0.00,Weather View 32 v70,2013-04-18 06:32:00,
2013-04-17 23:37:00,50.5,37.9,30.40,NW,312,4.0,14.0,62,0.00,,,0.00,Weather View 32 v70,2013-04-18 06:37:00,
2013-04-17 23:42:00,50.5,37.9,30.40,WNW,294,0.0,14.0,62,0.00,,,0.00,Weather View 32 v70,2013-04-18 06:42:00,
2013-04-17 23:47:00,50.4,37.8,30.40,WNW,287,4.0,14.0,62,0.00,,,0.00,Weather View 32 v70,2013-04-18 06:47:00,
2013-04-17 23:52:00,50.4,37.8,30.40,NW,311,6.0,14.0,62,0.00,,,0.00,Weather View 32 v70,2013-04-18 06:52:00,